FW9607 Weather Reports


Display with metric or nautical units.
time (UTC)temp
F
wind
direction
speed
MPH
gust
MPH
rain 1hr
in
rain 24hr
in
rain mn
in
humidity
%
barometer
mb
20260509224628 88 93 4.0 9.0 0.00 0.00 0.61 62 1006.9
20260509224125 88 51 4.0 8.0 0.00 0.00 0.61 62 1006.8
20260509223621 89 127 4.0 10.0 0.00 0.00 0.61 62 1006.7
20260509223122 89 113 2.0 10.0 0.00 0.00 0.61 61 1006.7
20260509222119 90 145 1.0 4.0 0.00 0.00 0.61 58 1006.7
20260509221618 91 51 2.0 5.0 0.00 0.00 0.61 55 1006.7
20260509221120 90 201 2.0 8.0 0.00 0.00 0.61 58 1006.7
20260509220619 91 212 3.0 8.0 0.00 0.00 0.61 56 1006.7
20260509220120 91 74 2.0 8.0 0.00 0.00 0.61 57 1006.9
20260509215619 91 183 1.0 5.0 0.00 0.00 0.61 55 1006.9
20260509215121 90 274 2.0 3.0 0.00 0.00 0.61 57 1006.9
20260509214619 89 113 2.0 4.0 0.00 0.00 0.61 59 1006.8
20260509214121 89 168 2.0 6.0 0.00 0.00 0.61 59 1006.9
20260509213619 89 141 2.0 6.0 0.00 0.00 0.61 60 1007.0
20260509213121 90 94 2.0 6.0 0.00 0.00 0.61 59 1006.9
20260509212620 89 172 2.0 7.0 0.00 0.00 0.61 60 1006.9
20260509212119 89 219 2.0 7.0 0.00 0.00 0.61 60 1007.0
20260509211116 90 258 1.0 5.0 0.00 0.00 0.61 60 1007.2
20260509210116 90 188 3.0 7.0 0.00 0.00 0.61 59 1007.2
20260509205614 89 165 3.0 7.0 0.00 0.00 0.61 59 1007.2
20260509205114 90 180 3.0 7.0 0.00 0.00 0.61 58 1007.2
20260509204614 90 203 2.0 7.0 0.00 0.00 0.61 60 1007.2
20260509204113 90 248 2.0 5.0 0.00 0.00 0.61 58 1007.2
20260509203614 90 45 2.0 5.0 0.00 0.00 0.61 56 1007.3
20260509203115 90 243 2.0 5.0 0.00 0.00 0.61 58 1007.3
20260509202614 90 269 2.0 5.0 0.00 0.00 0.61 60 1007.3
20260509202114 90 227 2.0 5.0 0.00 0.00 0.61 60 1007.4
20260509201114 90 147 2.0 4.0 0.00 0.00 0.61 61 1007.6
20260509200612 89 242 3.0 9.0 0.00 0.00 0.61 60 1007.5
20260509200112 89 227 3.0 9.0 0.00 0.00 0.61 61 1007.6
20260509195609 89 192 3.0 8.0 0.00 0.00 0.61 62 1007.6
20260509195109 89 171 2.0 6.0 0.00 0.00 0.61 59 1007.6
20260509194608 89 0 3.0 8.0 0.00 0.00 0.61 60 1007.7
20260509194106 89 207 3.0 8.0 0.00 0.00 0.61 61 1007.7
20260509193605 88 182 3.0 5.0 0.00 0.00 0.61 60 1007.7
20260509193106 88 237 3.0 8.0 0.00 0.00 0.61 61 1007.7
20260509192606 87 251 3.0 8.0 0.00 0.00 0.61 62 1007.7
20260509192106 87 240 3.0 8.0 0.00 0.00 0.61 62 1007.7
20260509191607 87 147 4.0 10.0 0.00 0.00 0.61 61 1007.8
20260509191106 86 225 3.0 10.0 0.00 0.00 0.61 63 1007.8
20260509190606 86 198 2.0 6.0 0.00 0.00 0.61 65 1007.8
20260509190106 86 259 3.0 9.0 0.00 0.00 0.61 65 1007.8
20260509185606 85 248 4.0 9.0 0.00 0.00 0.61 66 1007.9
20260509184103 86 235 3.0 7.0 0.00 0.00 0.61 64 1008.0
20260509183604 86 245 3.0 7.0 0.00 0.00 0.61 64 1008.0
20260509183103 86 229 2.0 9.0 0.00 0.00 0.61 63 1008.1
20260509182605 86 41 3.0 9.0 0.00 0.00 0.61 64 1008.2
20260509182104 86 228 3.0 7.0 0.00 0.00 0.61 66 1008.3
20260509181604 86 255 3.0 7.0 0.00 0.00 0.61 65 1008.3
20260509181104 86 263 2.0 6.0 0.00 0.00 0.61 62 1008.3
20260509180604 86 159 2.0 5.0 0.00 0.00 0.61 62 1008.4
20260509180104 86 63 1.0 4.0 0.00 0.00 0.61 64 1008.5
20260509175604 86 246 1.0 4.0 0.00 0.00 0.61 64 1008.7
20260509175104 85 135 2.0 5.0 0.00 0.00 0.61 62 1008.6
20260509174604 84 219 2.0 6.0 0.00 0.00 0.61 63 1008.6
20260509174104 84 277 2.0 6.0 0.00 0.00 0.61 65 1008.7
20260509173604 84 111 2.0 4.0 0.00 0.00 0.61 65 1008.6
20260509172101 83 186 2.0 4.0 0.00 0.00 0.61 69 1008.7
20260509171559 82 240 2.0 5.0 0.00 0.00 0.61 70 1008.8
20260509171059 83 269 2.0 6.0 0.00 0.00 0.61 69 1008.9
20260509170100 82 177 3.0 7.0 0.00 0.00 0.61 72 1009.1
20260509165059 81 315 2.0 6.0 0.00 0.00 0.61 70 1009.1
20260509163559 80 333 2.0 6.0 0.00 0.00 0.61 75 1009.3
20260509163059 79 310 3.0 6.0 0.00 0.00 0.61 74 1009.4
20260509161554 78 311 3.0 6.0 0.00 0.00 0.61 79 1009.6
20260509161050 78 321 3.0 6.0 0.00 0.00 0.61 79 1009.4
20260509160051 77 270 3.0 6.0 0.00 0.00 0.61 79 1009.6
20260509155551 77 309 2.0 5.0 0.00 0.00 0.61 79 1009.5
20260509155051 76 0 2.0 4.0 0.00 0.00 0.61 83 1009.4
20260509154548 76 270 2.0 4.0 0.00 0.00 0.61 83 1009.3
20260509154048 75 298 2.0 4.0 0.00 0.00 0.61 84 1009.5
20260509153548 75 253 2.0 3.0 0.00 0.00 0.61 87 1009.6
20260509153045 74 301 2.0 4.0 0.00 0.00 0.61 88 1009.6
20260509152547 74 274 2.0 4.0 0.00 0.00 0.61 90 1009.5
20260509152050 73 304 1.0 2.0 0.00 0.00 0.61 93 1009.2
20260509151547 73 317 1.0 3.0 0.00 0.00 0.61 95 1008.9
20260509151044 72 316 1.0 3.0 0.00 0.00 0.61 95 1008.8
20260509150544 72 316 1.0 2.0 0.00 0.00 0.61 95 1008.7
20260509150044 72 316 1.0 2.0 0.00 0.00 0.61 96 1008.7
20260509145544 71 316 1.0 2.0 0.00 0.00 0.61 96 1008.8
20260509145044 71 316 1.0 2.0 0.00 0.00 0.61 96 1008.8
20260509144544 71 316 1.0 2.0 0.00 0.00 0.61 96 1008.9
20260509143544 71 324 2.0 2.0 0.00 0.00 0.61 96 1009.1
20260509143044 71 315 2.0 2.0 0.00 0.00 0.61 95 1009.2
20260509142544 71 319 2.0 2.0 0.00 0.00 0.61 95 1009.5
20260509141545 71 329 2.0 5.0 0.00 0.00 0.61 95 1009.3
20260509141044 71 312 3.0 5.0 0.00 0.00 0.61 94 1008.9
20260509140534 71 119 3.0 5.0 0.00 0.00 0.61 95 1008.5
20260509135531 71 145 4.0 5.0 0.00 0.00 0.61 95 1007.9
20260509135022 70 128 4.0 5.0 0.00 0.00 0.61 95 1008.3
20260509134526 70 140 4.0 5.0 0.00 0.00 0.61 95 1008.5
20260509134018 70 146 4.0 5.0 0.00 0.00 0.61 95 1008.6
20260509133526 70 131 4.0 5.0 0.00 0.00 0.61 95 1009.0
20260509133018 70 323 4.0 5.0 0.00 0.00 0.61 95 1009.1
20260509132526 70 144 4.0 5.0 0.00 0.00 0.61 95 1009.1
20260509132019 70 132 4.0 5.0 0.00 0.00 0.61 94 1008.0
20260509131539 70 138 4.0 5.0 0.00 0.00 0.61 95 1008.0
20260509130523 70 129 4.0 4.0 0.00 0.00 0.61 93 1007.6
20260509130035 70 135 4.0 5.0 0.10 0.61 0.61 94 1007.6
20260509125534 70 133 4.0 5.0 0.12 0.61 0.61 93 1007.6
20260509125032 70 147 4.0 8.0 0.13 0.61 0.61 93 1008.0
20260509124530 70 129 5.0 10.0 0.14 0.61 0.61 93 1007.5
20260509124029 70 124 6.0 10.0 0.16 0.61 0.61 94 1007.5
20260509123531 69 132 6.0 13.0 0.17 0.61 0.61 95 1006.8
20260509123029 69 132 8.0 13.0 0.17 0.61 0.61 95 1006.3
20260509122530 69 133 8.0 13.0 0.19 0.60 0.61 95 1006.0
20260509122030 70 134 7.0 10.0 0.20 0.59 0.59 96 1006.1
20260509121528 71 132 8.0 10.0 0.20 0.57 0.57 96 1007.3
20260509120527 72 131 7.0 11.0 0.16 0.53 0.53 97 1008.1
20260509115024 70 113 6.0 10.0 0.11 0.48 0.48 97 1008.1
20260509114528 70 124 5.0 8.0 0.11 0.47 0.47 96 1008.7
20260509113528 71 140 5.0 7.0 0.12 0.44 0.44 96 1009.3
20260509112528 71 161 6.0 7.0 0.13 0.41 0.41 95 1009.5
20260509112023 71 146 5.0 7.0 0.14 0.39 0.39 95 1009.5
20260509111528 71 151 5.0 8.0 0.15 0.38 0.38 96 1009.0
20260509111025 71 124 5.0 8.0 0.17 0.37 0.37 96 1008.9
20260509110529 72 143 4.0 8.0 0.19 0.37 0.37 96 1009.0
20260509110024 72 142 5.0 8.0 0.21 0.37 0.37 96 1009.0
20260509105018 72 128 5.0 7.0 0.24 0.37 0.37 96 1009.1
20260509104524 73 114 5.0 7.0 0.26 0.36 0.36 96 1009.1
20260509104020 73 140 4.0 7.0 0.26 0.35 0.35 96 1009.4
20260509103021 72 145 4.0 6.0 0.27 0.30 0.30 96 1009.5
20260509101510 72 145 2.0 4.0 0.22 0.22 0.22 96 1009.9
20260509101006 72 148 2.0 3.0 0.20 0.20 0.20 96 1009.8
20260509095959 73 146 3.0 6.0 0.15 0.16 0.16 96 1009.9
20260509095450 75 164 4.0 7.0 0.13 0.14 0.14 96 1010.1
20260509094949 76 161 4.0 7.0 0.12 0.13 0.13 97 1010.1
20260509094449 76 161 4.0 7.0 0.10 0.11 0.11 97 1010.0
20260509093948 76 109 3.0 5.0 0.08 0.08 0.08 97 1010.1
20260509093452 76 162 3.0 5.0 0.06 0.07 0.07 96 1010.1
20260509092947 76 190 3.0 5.0 0.03 0.03 0.03 96 1009.9
20260509091947 77 167 3.0 4.0 0.01 0.01 0.01 94 1008.9
20260509091452 77 167 3.0 4.0 0.00 0.00 0.00 94 1008.0
20260509090447 77 137 3.0 5.0 0.00 0.00 0.00 94 1007.2
20260509085946 77 129 3.0 4.0 0.00 0.00 0.00 94 1006.8
20260509084937 76 147 4.0 6.0 0.00 0.00 0.00 95 1006.9
20260509084437 76 162 4.0 6.0 0.00 0.00 0.00 95 1006.5
20260509083937 77 158 4.0 6.0 0.00 0.00 0.00 95 1006.1
20260509083436 77 96 3.0 6.0 0.00 0.00 0.00 95 1006.2
20260509082937 77 93 3.0 6.0 0.00 0.00 0.00 95 1006.2
20260509082434 77 175 3.0 4.0 0.00 0.00 0.00 95 1006.0
20260509081934 77 127 2.0 4.0 0.00 0.00 0.00 94 1006.4
20260509081435 77 130 2.0 3.0 0.00 0.00 0.00 94 1006.6
20260509080934 77 110 2.0 5.0 0.00 0.00 0.00 94 1007.0
20260509080428 77 168 3.0 5.0 0.00 0.00 0.00 94 1007.0
20260509075910 77 114 3.0 5.0 0.00 0.00 0.00 94 1006.9
20260509075409 77 167 3.0 5.0 0.00 0.00 0.00 94 1007.1
20260509074406 77 129 3.0 4.0 0.00 0.00 0.00 94 1007.2
20260509073906 77 120 2.0 4.0 0.00 0.00 0.00 94 1007.3
20260509073406 77 84 3.0 4.0 0.00 0.00 0.00 94 1007.5
20260509072906 77 135 3.0 4.0 0.00 0.00 0.00 94 1007.3
20260509072406 77 135 2.0 4.0 0.00 0.00 0.00 94 1007.5
20260509071906 77 86 2.0 4.0 0.00 0.00 0.00 93 1007.8
20260509071406 78 73 2.0 2.0 0.00 0.00 0.00 93 1007.8
20260509070413 77 112 2.0 3.0 0.00 0.00 0.00 94 1008.1
20260509065906 77 124 2.0 3.0 0.00 0.00 0.00 94 1008.1
20260509065406 77 158 2.0 3.0 0.00 0.00 0.00 94 1008.1
20260509064906 77 88 2.0 4.0 0.00 0.00 0.00 94 1008.1
20260509064351 77 133 2.0 4.0 0.00 0.00 0.00 94 1008.0
20260509063351 77 80 3.0 5.0 0.00 0.00 0.00 93 1007.6
20260509062852 77 110 2.0 5.0 0.00 0.00 0.00 93 1007.6
20260509062352 77 87 2.0 4.0 0.00 0.00 0.00 93 1008.0
20260509061852 77 89 2.0 4.0 0.00 0.00 0.00 93 1007.9
20260509061352 77 155 2.0 4.0 0.00 0.00 0.00 93 1007.7
20260509060852 77 131 2.0 4.0 0.00 0.00 0.00 93 1007.4
20260509060353 77 40 2.0 3.0 0.00 0.00 0.00 93 1007.6
20260509055852 77 53 2.0 4.0 0.00 0.00 0.00 92 1007.6
20260509055353 78 243 2.0 4.0 0.00 0.00 0.00 92 1007.6
20260509054853 78 101 3.0 5.0 0.00 0.00 0.00 91 1007.4
20260509053839 78 70 2.0 6.0 0.00 0.00 0.00 91 1007.3
20260509053340 78 42 3.0 8.0 0.00 0.00 0.00 91 1007.4
20260509051840 78 164 2.0 6.0 0.00 0.00 0.00 90 1008.1
20260509051340 78 87 2.0 6.0 0.00 0.00 0.00 90 1008.0
20260509050840 79 113 2.0 6.0 0.00 0.00 0.00 90 1007.6
20260509050340 79 136 2.0 5.0 0.00 0.00 0.00 89 1007.7
20260509045840 79 156 1.0 4.0 0.00 0.00 0.00 89 1008.1
20260509045339 79 146 1.0 2.0 0.00 0.00 0.00 89 1008.3
20260509044840 79 254 1.0 2.0 0.00 0.00 0.00 89 1008.3
20260509043337 79 115 2.0 6.0 0.00 0.00 0.00 89 1007.8
20260509042837 79 128 2.0 6.0 0.00 0.00 0.00 88 1007.8
20260509042337 79 120 2.0 4.0 0.00 0.00 0.00 88 1007.6
20260509041837 79 148 2.0 5.0 0.00 0.00 0.00 88 1007.7
20260509041338 79 94 2.0 5.0 0.00 0.00 0.00 88 1007.7
20260509040837 79 122 1.0 3.0 0.00 0.00 0.00 89 1007.8
20260509035838 79 143 2.0 4.0 0.00 0.00 0.00 89 1007.5
20260509034837 79 104 2.0 5.0 0.00 0.00 0.00 89 1007.1
20260509034338 79 113 2.0 5.0 0.00 0.00 0.00 89 1007.2
20260509033835 79 99 2.0 4.0 0.00 0.00 0.00 89 1007.3
20260509033335 79 101 2.0 4.0 0.00 0.00 0.00 89 1007.4
20260509032835 79 146 1.0 3.0 0.00 0.00 0.00 89 1007.4
20260509032335 79 174 1.0 4.0 0.00 0.00 0.00 89 1007.4
20260509031836 79 173 1.0 4.0 0.00 0.00 0.00 89 1007.2
20260509031337 79 163 1.0 2.0 0.00 0.00 0.00 90 1007.3
20260509030837 79 162 1.0 3.0 0.00 0.00 0.00 90 1007.3
20260509025837 80 152 1.0 2.0 0.00 0.00 0.00 90 1007.0
20260509025337 80 163 1.0 2.0 0.00 0.00 0.00 89 1006.9
20260509024837 80 157 1.0 3.0 0.00 0.00 0.00 89 1006.8
20260509024337 80 143 1.0 3.0 0.00 0.00 0.00 89 1006.7
20260509023837 80 164 1.0 3.0 0.00 0.00 0.00 89 1006.6
20260509023337 80 107 1.0 3.0 0.00 0.00 0.00 89 1006.5
20260509022833 80 144 1.0 3.0 0.00 0.00 0.00 89 1006.4
20260509022331 80 121 1.0 3.0 0.00 0.00 0.00 89 1006.4
20260509021828 80 137 1.0 3.0 0.00 0.00 0.00 89 1006.3
20260509021327 80 125 1.0 3.0 0.00 0.00 0.00 89 1006.2
20260509020827 80 159 2.0 5.0 0.00 0.00 0.00 89 1006.3
20260509020327 80 106 1.0 5.0 0.00 0.00 0.00 89 1006.2
20260509015825 80 171 2.0 4.0 0.00 0.00 0.00 89 1006.1
20260509014824 80 108 2.0 4.0 0.00 0.00 0.00 89 1005.9
20260509014324 80 89 2.0 4.0 0.00 0.00 0.00 89 1005.7
20260509013824 81 158 2.0 6.0 0.00 0.00 0.00 89 1005.8
20260509013325 81 141 2.0 6.0 0.00 0.00 0.00 89 1005.5
20260509012824 81 114 2.0 4.0 0.00 0.00 0.00 88 1005.5
20260509012325 81 137 1.0 4.0 0.00 0.00 0.00 88 1005.6
20260509011825 81 110 2.0 7.0 0.00 0.00 0.00 88 1005.5
20260509011322 81 142 2.0 7.0 0.00 0.00 0.00 88 1005.5
20260509010822 81 135 2.0 5.0 0.00 0.00 0.00 88 1005.4
20260509010322 81 83 2.0 7.0 0.00 0.00 0.00 88 1005.2
20260509005822 81 125 2.0 7.0 0.00 0.00 0.00 88 1005.1
20260509005322 81 158 2.0 6.0 0.00 0.00 0.00 88 1005.0
20260509004823 81 183 2.0 6.0 0.00 0.00 0.00 88 1005.0
20260509004322 81 132 3.0 6.0 0.00 0.00 0.00 88 1004.9
20260509003820 82 102 2.0 7.0 0.00 0.00 0.00 87 1005.0
20260509003320 82 116 3.0 7.0 0.00 0.00 0.00 87 1005.0
20260509002819 82 77 3.0 10.0 0.00 0.00 0.00 87 1004.9
20260509001820 82 115 3.0 6.0 0.00 0.00 0.00 86 1005.1
20260509000819 82 86 3.0 6.0 0.00 0.00 0.00 86 1005.2
20260509000320 83 131 2.0 6.0 0.00 0.00 0.00 85 1005.0
20260508235820 83 106 2.0 6.0 0.00 0.00 0.00 84 1005.1
20260508235320 83 117 2.0 7.0 0.00 0.00 0.00 84 1005.2
20260508234817 83 65 3.0 7.0 0.00 0.00 0.00 84 1005.1
20260508234318 83 149 3.0 7.0 0.00 0.00 0.00 84 1005.1
20260508233817 83 94 3.0 8.0 0.00 0.00 0.00 84 1005.1
20260508233318 84 122 3.0 8.0 0.00 0.00 0.00 83 1005.0
20260508232817 84 137 3.0 8.0 0.00 0.00 0.00 83 1005.0
20260508232314 84 103 3.0 8.0 0.00 0.00 0.00 82 1005.0
20260508231814 84 136 2.0 6.0 0.00 0.00 0.00 81 1005.2
20260508231315 84 85 2.0 8.0 0.00 0.00 0.00 81 1005.2
20260508230314 85 136 2.0 7.0 0.00 0.00 0.00 80 1005.1
20260508225315 85 127 4.0 7.0 0.00 0.00 0.00 79 1005.2